Weather History for Bismarck, ND

Change the Weather History Date:

Monday, April 21, 2014

  Actual Average Record
Temperature  
Mean Temperature 50 °F 46 °F  
Max Temperature 63 °F 60 °F 93 °F (1980)
Min Temperature 37 °F 33 °F 18 °F (1936)
Degree Days  
Heating Degree Days 15 19  
Month to date heating degree days 542 486  
Since 1 July heating degree days 8558 8005  
Cooling Degree Days 0 0  
Month to date cooling degree days 0 0  
Year to date cooling degree days 0 0  
Growing Degree Days 1 (Base 50)    
Moisture  
Dew Point 32 °F    
Average Humidity 57    
Maximum Humidity 82    
Minimum Humidity 32    
Precipitation  
Precipitation 0.00 in 0.04 in 1.44 in (1885)
Month to date precipitation 0.25 0.79  
Year to date precipitation 1.64 2.60  
Snow  
Snow 0.00 in 0.10 in 1.40 in (1924)
Month to date snowfall 3.9 3.5  
Since 1 July snowfall 40.2 50.1  
Snow Depth 0.00 in    
Sea Level Pressure  
Sea Level Pressure 30.17 in    
Wind  
Wind Speed 8 mph (NW)    
Max Wind Speed 17 mph    
Max Gust Speed 21 mph    
Visibility 10 miles    
Events      
T = Trace of Precipitation, MM = Missing Value Source: NWS Daily Summary

Daily Weather History Graph

Daily Weather History Graph

Search for Another Location

Airport:

Trip Planner

Search our weather history database for the weather conditions in past years. The results will help you decide how hot, cold, wet, or windy it might be!

Date:

Astronomy

Apr. 21, 2014 Rise Set
Actual Time 6:44 AM CDT 8:39 PM CDT
Civil Twilight 6:12 AM CDT 9:12 PM CDT
Nautical Twilight 5:32 AM CDT 9:52 PM CDT
Astronomical Twilight 4:48 AM CDT 10:36 PM CDT
Moon 2:16 AM CDT (4/21) 12:08 PM CDT (4/21)
Length of Visible Light 14h 59m
Length of Day
13h 54m
Waning Gibbous, 57% of the Moon is Illuminated
Apr 21
Waning Gibbous
Apr 22
Last Quarter
Apr 29
New
May 6
First Quarter
May 14
Full

Hourly Weather History & Observations

Time (CDT) Temp. Windchill Dew Point Humidity Pressure Visibility Wind Dir Wind Speed Gust Speed Precip Events Conditions
12:52 AM 44.1 °F 40.8 °F 27.0 °F 51% 30.05 in 10.0 mi WNW 5.8 mph - N/A   Clear
1:52 AM 42.1 °F 37.7 °F 28.0 °F 58% 30.06 in 10.0 mi West 6.9 mph - N/A   Clear
2:52 AM 39.9 °F 35.8 °F 28.0 °F 63% 30.08 in 10.0 mi North 5.8 mph - N/A   Clear
3:52 AM 45.0 °F 40.1 °F 28.9 °F 53% 30.08 in 10.0 mi WNW 9.2 mph - N/A   Clear
4:52 AM 43.0 °F 37.7 °F 30.9 °F 62% 30.09 in 10.0 mi NW 9.2 mph - N/A   Clear
5:52 AM 43.0 °F 36.8 °F 32.0 °F 65% 30.11 in 10.0 mi NW 11.5 mph - N/A   Clear
6:52 AM 39.9 °F 34.5 °F 33.1 °F 77% 30.15 in 10.0 mi WNW 8.1 mph - N/A   Clear
7:29 AM 42.1 °F 37.1 °F - N/A% 30.16 in 10.0 mi WNW 8.1 mph - N/A   Mostly Cloudy
7:52 AM 42.1 °F 37.1 °F 35.1 °F 76% 30.19 in 10.0 mi WNW 8.1 mph - N/A   Overcast
8:11 AM 42.1 °F 36.6 °F 36.0 °F 79% 30.19 in 10.0 mi WNW 9.2 mph - N/A   Overcast
8:52 AM 43.0 °F 37.7 °F 37.0 °F 80% 30.22 in 10.0 mi WNW 9.2 mph - N/A   Overcast
9:52 AM 45.0 °F 38.9 °F 37.0 °F 74% 30.23 in 10.0 mi NW 12.7 mph - N/A   Overcast
10:52 AM 45.0 °F 39.7 °F 36.0 °F 71% 30.25 in 10.0 mi North 10.4 mph - N/A   Overcast
11:52 AM 48.0 °F - 36.0 °F 63% 30.26 in 10.0 mi North 10.4 mph - N/A   Overcast
12:52 PM 51.1 °F - 35.1 °F 54% 30.25 in 10.0 mi WNW 8.1 mph 18.4 mph N/A   Mostly Cloudy
1:18 PM 52.0 °F - 35.1 °F 53% 30.22 in 10.0 mi North 9.2 mph 19.6 mph N/A   Scattered Clouds
1:52 PM 53.1 °F - 35.1 °F 50% 30.23 in 10.0 mi NW 9.2 mph - N/A   Clear
2:52 PM 55.0 °F - 34.0 °F 45% 30.22 in 10.0 mi Variable 4.6 mph - N/A   Clear
3:52 PM 55.9 °F - 34.0 °F 44% 30.20 in 10.0 mi Variable 3.5 mph - N/A   Clear
4:52 PM 60.1 °F - 32.0 °F 35% 30.19 in 10.0 mi NNW 6.9 mph - N/A   Clear
5:52 PM 61.0 °F - 30.9 °F 32% 30.17 in 10.0 mi NNW 5.8 mph - N/A   Clear
6:52 PM 61.0 °F - 30.9 °F 32% 30.16 in 10.0 mi NNW 10.4 mph - N/A   Clear
7:52 PM 59.0 °F - 30.0 °F 33% 30.14 in 10.0 mi North 11.5 mph - N/A   Clear
8:52 PM 50.0 °F - 30.9 °F 48% 30.14 in 10.0 mi ENE 4.6 mph - N/A   Clear
9:52 PM 46.0 °F 42.5 °F 30.0 °F 54% 30.17 in 10.0 mi East 6.9 mph - N/A   Clear
10:52 PM 43.0 °F - 30.0 °F 60% 30.17 in 10.0 mi Calm Calm - N/A   Clear
11:52 PM 37.9 °F 35.5 °F 30.0 °F 73% 30.16 in 10.0 mi East 3.5 mph - N/A   Clear